WIF8XA ENVA-ENTC

Flight info

Callsign WIF8XA
Flight time 1h 39m
Altitude 25000
Route NIGEX DCT PENNO DCT ATWEG
Aircraft DH8D/M-SDFGRY/SB1

Departure

Time 2026-04-27 15:16
Airport Trondheim Airport, Værnes (ENVA)

Arrival

Time 2026-04-27 16:55
Airport Tromsø Airport (ENTC)
Time Latitude Longitude Altitude Speed Heading
2026-04-27 14:32 63.45454 10.91273 28 ft 0 kts 90°
2026-04-27 15:10 63.45453 10.91280 30 ft 0 kts 124°
2026-04-27 15:10 63.45445 10.91282 30 ft 4 kts 207°
2026-04-27 15:11 63.45463 10.91157 28 ft 13 kts 332°
2026-04-27 15:11 63.45560 10.91145 28 ft 13 kts
2026-04-27 15:11 63.45597 10.91291 29 ft 12 kts 90°
2026-04-27 15:11 63.45597 10.91488 31 ft 14 kts 90°
2026-04-27 15:12 63.45597 10.91762 32 ft 20 kts 90°
2026-04-27 15:12 63.45596 10.92112 35 ft 24 kts 90°
2026-04-27 15:12 63.45595 10.92418 37 ft 18 kts 90°
2026-04-27 15:12 63.45594 10.92723 39 ft 20 kts 90°
2026-04-27 15:13 63.45593 10.93041 41 ft 21 kts 90°
2026-04-27 15:13 63.45593 10.93355 45 ft 17 kts 90°
2026-04-27 15:13 63.45592 10.93620 48 ft 16 kts 90°
2026-04-27 15:13 63.45614 10.93872 50 ft 17 kts 54°
2026-04-27 15:14 63.45654 10.93963 51 ft 0 kts 44°
2026-04-27 15:14 63.45667 10.93991 51 ft 9 kts 44°
2026-04-27 15:14 63.45742 10.94088 52 ft 12 kts 326°
2026-04-27 15:15 63.45757 10.93972 51 ft 0 kts 270°
2026-04-27 15:15 63.45757 10.93395 45 ft 82 kts 270°
2026-04-27 15:15 63.45760 10.91633 86 ft 135 kts 271°
2026-04-27 15:16 63.45777 10.89469 528 ft 145 kts 272°
2026-04-27 15:16 63.45805 10.87168 1125 ft 152 kts 271°
2026-04-27 15:16 63.45819 10.84811 1776 ft 156 kts 271°
2026-04-27 15:16 63.45831 10.82423 2448 ft 158 kts 271°
2026-04-27 15:17 63.45839 10.79969 3043 ft 161 kts 271°
2026-04-27 15:17 63.45846 10.77472 3603 ft 162 kts 271°
2026-04-27 15:17 63.45851 10.74970 4115 ft 166 kts 272°
2026-04-27 15:17 63.45859 10.72361 4644 ft 169 kts 273°
2026-04-27 15:18 63.45861 10.69734 5182 ft 172 kts 274°
2026-04-27 15:18 63.45866 10.67063 5645 ft 176 kts 274°
2026-04-27 15:18 63.45872 10.64253 6021 ft 184 kts 274°
2026-04-27 15:18 63.45870 10.61401 6492 ft 187 kts 274°
2026-04-27 15:19 63.45863 10.58530 6978 ft 189 kts 274°
2026-04-27 15:19 63.45873 10.55590 7425 ft 197 kts 278°
2026-04-27 15:19 63.46461 10.52767 7547 ft 207 kts 322°
2026-04-27 15:19 63.47813 10.51758 7929 ft 213 kts 357°
2026-04-27 15:20 63.49295 10.51800 8468 ft 216 kts 360°
2026-04-27 15:20 63.50789 10.51861 9004 ft 218 kts 359°
2026-04-27 15:20 63.52307 10.51911 9542 ft 221 kts 359°
2026-04-27 15:20 63.53839 10.52030 10068 ft 224 kts
2026-04-27 15:21 63.55297 10.53278 10563 ft 229 kts 25°
2026-04-27 15:21 63.56700 10.55027 11141 ft 230 kts 26°
2026-04-27 15:21 63.58093 10.56762 11719 ft 230 kts 25°
2026-04-27 15:21 63.59494 10.58503 12304 ft 231 kts 25°
2026-04-27 15:22 63.60897 10.60239 12889 ft 231 kts 24°
2026-04-27 15:22 63.62295 10.61962 13479 ft 230 kts 24°
2026-04-27 15:22 63.63685 10.63672 14047 ft 230 kts 23°
2026-04-27 15:22 63.65076 10.65381 14603 ft 229 kts 22°
2026-04-27 15:23 63.66462 10.67080 15142 ft 228 kts 22°
2026-04-27 15:23 63.67864 10.68800 15624 ft 230 kts 22°
2026-04-27 15:23 63.69260 10.70511 16087 ft 231 kts 21°
2026-04-27 15:23 63.70667 10.72236 16537 ft 232 kts 21°
2026-04-27 15:24 63.72089 10.73984 16976 ft 233 kts 21°
2026-04-27 15:24 63.73499 10.75721 17398 ft 233 kts 21°
2026-04-27 15:24 63.74921 10.77473 17811 ft 234 kts 21°
2026-04-27 15:24 63.76348 10.79232 18216 ft 234 kts 20°
2026-04-27 15:25 63.77768 10.80983 18605 ft 235 kts 20°
2026-04-27 15:25 63.79208 10.82761 18974 ft 236 kts 20°
2026-04-27 15:25 63.80647 10.84539 19329 ft 237 kts 20°
2026-04-27 15:25 63.82095 10.86325 19674 ft 238 kts 20°
2026-04-27 15:26 63.83548 10.88121 20009 ft 238 kts 20°
2026-04-27 15:26 63.84989 10.89903 20325 ft 240 kts 20°
2026-04-27 15:26 63.86450 10.91713 20629 ft 241 kts 20°
2026-04-27 15:26 63.87926 10.93545 20906 ft 242 kts 20°
2026-04-27 15:27 63.89399 10.95374 21174 ft 243 kts 20°
2026-04-27 15:27 63.90892 10.97232 21431 ft 244 kts 20°
2026-04-27 15:27 63.92368 10.99073 21676 ft 245 kts 20°
2026-04-27 15:27 63.93875 11.00954 21918 ft 246 kts 20°
2026-04-27 15:28 63.95369 11.02822 22150 ft 247 kts 20°
2026-04-27 15:28 63.96878 11.04710 22371 ft 247 kts 20°
2026-04-27 15:28 63.98380 11.06592 22583 ft 248 kts 20°
2026-04-27 15:28 63.99884 11.08477 22789 ft 249 kts 20°
2026-04-27 15:29 64.01416 11.10400 22993 ft 250 kts 20°
2026-04-27 15:29 64.02928 11.12303 23196 ft 250 kts 20°
2026-04-27 15:29 64.04452 11.14222 23393 ft 250 kts 19°
2026-04-27 15:29 64.05962 11.16126 23581 ft 250 kts 19°
2026-04-27 15:30 64.07495 11.18062 23765 ft 250 kts 19°
2026-04-27 15:30 64.09007 11.19973 23922 ft 251 kts 19°
2026-04-27 15:30 64.10533 11.21904 24081 ft 251 kts 19°
2026-04-27 15:30 64.12066 11.23846 24241 ft 252 kts 19°
2026-04-27 15:31 64.13599 11.25789 24399 ft 252 kts 19°
2026-04-27 15:31 64.15131 11.27735 24554 ft 253 kts 19°
2026-04-27 15:31 64.16676 11.29700 24705 ft 253 kts 19°
2026-04-27 15:31 64.18211 11.31723 24859 ft 257 kts 24°
2026-04-27 15:32 64.19499 11.34750 24974 ft 275 kts 41°
2026-04-27 15:32 64.20597 11.38353 25119 ft 277 kts 43°
2026-04-27 15:32 64.21688 11.42000 25265 ft 278 kts 43°
2026-04-27 15:32 64.22794 11.45694 25398 ft 279 kts 43°
2026-04-27 15:33 64.23907 11.49387 25446 ft 284 kts 43°
2026-04-27 15:33 64.25041 11.53137 25458 ft 289 kts 43°
2026-04-27 15:33 64.26212 11.57004 25462 ft 295 kts 43°
2026-04-27 15:33 64.27404 11.60943 25463 ft 300 kts 43°
2026-04-27 15:34 64.28630 11.65004 25452 ft 304 kts 43°
2026-04-27 15:34 64.29842 11.69023 25433 ft 307 kts 44°
2026-04-27 15:34 64.31065 11.73086 25423 ft 310 kts 44°
2026-04-27 15:34 64.32308 11.77226 25414 ft 311 kts 44°
2026-04-27 15:35 64.33538 11.81327 25406 ft 313 kts 44°
2026-04-27 15:35 64.34779 11.85472 25401 ft 314 kts 44°
2026-04-27 15:35 64.36027 11.89647 25400 ft 314 kts 44°
2026-04-27 15:35 64.37277 11.93833 25400 ft 315 kts 44°
2026-04-27 15:36 64.38538 11.97958 25398 ft 311 kts 40°
2026-04-27 15:36 64.40138 12.00917 25413 ft 286 kts 18°
2026-04-27 15:36 64.41946 12.02802 25412 ft 285 kts 15°
2026-04-27 15:36 64.43752 12.04610 25416 ft 285 kts 15°
2026-04-27 15:37 64.45565 12.06416 25422 ft 285 kts 15°
2026-04-27 15:37 64.47395 12.08239 25426 ft 286 kts 15°
2026-04-27 15:37 64.49200 12.10041 25428 ft 286 kts 15°
2026-04-27 15:37 64.51031 12.11871 25428 ft 286 kts 15°
2026-04-27 15:38 64.52846 12.13690 25423 ft 286 kts 15°
2026-04-27 15:38 64.54666 12.15516 25419 ft 286 kts 15°
2026-04-27 15:38 64.56496 12.17355 25418 ft 286 kts 15°
2026-04-27 15:38 64.58330 12.19199 25419 ft 285 kts 15°
2026-04-27 15:39 64.60143 12.21026 25422 ft 285 kts 15°
2026-04-27 15:39 64.61955 12.22854 25424 ft 285 kts 15°
2026-04-27 15:39 64.63770 12.24690 25423 ft 285 kts 15°
2026-04-27 15:39 64.65608 12.26551 25421 ft 285 kts 15°
2026-04-27 15:40 64.67412 12.28381 25419 ft 285 kts 15°
2026-04-27 15:40 64.69223 12.30219 25416 ft 285 kts 15°
2026-04-27 15:40 64.71040 12.32066 25413 ft 285 kts 15°
2026-04-27 15:40 64.72865 12.33925 25410 ft 285 kts 15°
2026-04-27 15:41 64.74686 12.35785 25410 ft 284 kts 15°
2026-04-27 15:41 64.76497 12.37637 25391 ft 285 kts 15°
2026-04-27 15:41 64.78307 12.39488 25377 ft 285 kts 15°
2026-04-27 15:41 64.80120 12.41347 25367 ft 285 kts 15°
2026-04-27 15:42 64.81954 12.43229 25359 ft 285 kts 15°
2026-04-27 15:42 64.83759 12.45084 25355 ft 285 kts 15°
2026-04-27 15:42 64.85561 12.46939 25356 ft 284 kts 15°
2026-04-27 15:42 64.87368 12.48803 25361 ft 283 kts 15°
2026-04-27 15:43 64.89181 12.50674 25372 ft 282 kts 15°
2026-04-27 15:43 64.90973 12.52527 25391 ft 282 kts 15°
2026-04-27 15:43 64.92762 12.54378 25396 ft 281 kts 15°
2026-04-27 15:43 64.94548 12.56228 25396 ft 281 kts 15°
2026-04-27 15:44 64.96333 12.58079 25395 ft 281 kts 15°
2026-04-27 15:44 64.98120 12.59938 25393 ft 281 kts 15°
2026-04-27 15:44 64.99927 12.61818 25389 ft 281 kts 15°
2026-04-27 15:44 65.01706 12.63672 25386 ft 281 kts 15°
2026-04-27 15:45 65.03498 12.65544 25378 ft 281 kts 16°
2026-04-27 15:45 65.05304 12.67432 25378 ft 281 kts 16°
2026-04-27 15:45 65.07085 12.69297 25379 ft 280 kts 16°
2026-04-27 15:45 65.08865 12.71165 25381 ft 280 kts 16°
2026-04-27 15:46 65.10635 12.73024 25389 ft 279 kts 16°
2026-04-27 15:46 65.12402 12.74881 25385 ft 280 kts 16°
2026-04-27 15:46 65.14192 12.76765 25384 ft 280 kts 16°
2026-04-27 15:46 65.15988 12.78658 25382 ft 281 kts 16°
2026-04-27 15:47 65.17773 12.80544 25379 ft 281 kts 16°
2026-04-27 15:47 65.19548 12.82421 25378 ft 281 kts 16°
2026-04-27 15:47 65.21344 12.84324 25378 ft 281 kts 16°
2026-04-27 15:47 65.23130 12.86220 25377 ft 281 kts 16°
2026-04-27 15:48 65.24942 12.88147 25378 ft 281 kts 16°
2026-04-27 15:48 65.26731 12.90051 25376 ft 282 kts 16°
2026-04-27 15:48 65.28526 12.91963 25356 ft 283 kts 16°
2026-04-27 15:49 65.32134 12.95814 25290 ft 285 kts 16°
2026-04-27 15:49 65.33953 12.97762 25250 ft 285 kts 16°
2026-04-27 15:49 65.35780 12.99721 25207 ft 286 kts 16°
2026-04-27 15:49 65.37596 13.01671 25163 ft 286 kts 16°
2026-04-27 15:50 65.39413 13.03629 25171 ft 283 kts 16°
2026-04-27 15:50 65.41187 13.05545 25195 ft 281 kts 16°
2026-04-27 15:50 65.42960 13.07461 25223 ft 279 kts 16°
2026-04-27 15:50 65.44729 13.09374 25250 ft 277 kts 16°
2026-04-27 15:51 65.46458 13.11246 25290 ft 275 kts 16°
2026-04-27 15:51 65.48205 13.13137 25324 ft 275 kts 16°
2026-04-27 15:51 65.49949 13.15029 25351 ft 274 kts 15°
2026-04-27 15:51 65.51698 13.16927 25371 ft 275 kts 15°
2026-04-27 15:52 65.53458 13.18842 25375 ft 275 kts 15°
2026-04-27 15:52 65.55186 13.20723 25378 ft 276 kts 15°
2026-04-27 15:52 65.56945 13.22643 25381 ft 276 kts 15°
2026-04-27 15:52 65.58705 13.24567 25384 ft 276 kts 15°
2026-04-27 15:53 65.60461 13.26490 25382 ft 276 kts 15°
2026-04-27 15:53 65.62220 13.28418 25380 ft 276 kts 15°
2026-04-27 15:53 65.63965 13.30334 25377 ft 276 kts 15°
2026-04-27 15:53 65.65693 13.32235 25375 ft 275 kts 15°
2026-04-27 15:54 65.67433 13.34152 25374 ft 275 kts 15°
2026-04-27 15:54 65.69173 13.36071 25370 ft 275 kts 15°
2026-04-27 15:54 65.70919 13.38000 25366 ft 275 kts 15°
2026-04-27 15:54 65.72656 13.39921 25362 ft 275 kts 15°
2026-04-27 15:55 65.74382 13.41834 25356 ft 275 kts 15°
2026-04-27 15:55 65.75558 13.43140 25353 ft 274 kts 15°
2026-04-27 15:55 65.77857 13.45694 25348 ft 274 kts 15°
2026-04-27 15:55 65.79582 13.47614 25343 ft 273 kts 15°
2026-04-27 15:56 65.81316 13.49547 25337 ft 272 kts 15°
2026-04-27 15:56 65.83044 13.51476 25336 ft 272 kts 15°
2026-04-27 15:56 65.84768 13.53404 25336 ft 271 kts 15°
2026-04-27 15:56 65.86482 13.55323 25330 ft 271 kts 15°
2026-04-27 15:57 65.88192 13.57240 25323 ft 271 kts 15°
2026-04-27 15:57 65.89895 13.59151 25314 ft 270 kts 15°
2026-04-27 15:57 65.91602 13.61070 25307 ft 270 kts 15°
2026-04-27 15:57 65.93304 13.62987 25304 ft 269 kts 15°
2026-04-27 15:58 65.95004 13.64905 25304 ft 269 kts 15°
2026-04-27 15:58 65.96688 13.66808 25308 ft 267 kts 16°
2026-04-27 15:58 65.98377 13.68719 25316 ft 267 kts 16°
2026-04-27 15:58 66.00064 13.70630 25326 ft 266 kts 16°
2026-04-27 15:59 66.01723 13.72513 25341 ft 265 kts 16°
2026-04-27 15:59 66.03408 13.74425 25347 ft 265 kts 15°
2026-04-27 15:59 66.05085 13.76333 25348 ft 266 kts 15°
2026-04-27 15:59 66.06771 13.78252 25347 ft 266 kts 15°
2026-04-27 16:00 66.08440 13.80156 25344 ft 266 kts 15°
2026-04-27 16:00 66.09561 13.81437 25343 ft 266 kts 15°
2026-04-27 16:00 66.11783 13.83979 25343 ft 267 kts 15°
2026-04-27 16:00 66.13482 13.85925 25345 ft 267 kts 15°
2026-04-27 16:01 66.15175 13.87866 25347 ft 268 kts 15°
2026-04-27 16:01 66.16859 13.89803 25349 ft 268 kts 15°
2026-04-27 16:01 66.18553 13.91752 25351 ft 269 kts 15°
2026-04-27 16:01 66.20246 13.93704 25354 ft 269 kts 15°
2026-04-27 16:02 66.21927 13.95644 25358 ft 269 kts 15°
2026-04-27 16:02 66.23623 13.97606 25363 ft 269 kts 15°
2026-04-27 16:02 66.25333 13.99586 25368 ft 270 kts 15°
2026-04-27 16:02 66.27018 14.01541 25365 ft 270 kts 15°
2026-04-27 16:03 66.28715 14.03512 25356 ft 270 kts 15°
2026-04-27 16:03 66.30418 14.05494 25349 ft 270 kts 15°
2026-04-27 16:03 66.32111 14.07466 25346 ft 270 kts 15°
2026-04-27 16:03 66.33807 14.09445 25344 ft 270 kts 15°
2026-04-27 16:04 66.35510 14.11436 25343 ft 270 kts 15°
2026-04-27 16:04 66.37203 14.13416 25343 ft 270 kts 15°
2026-04-27 16:04 66.38919 14.15428 25342 ft 270 kts 15°
2026-04-27 16:04 66.40600 14.17401 25342 ft 270 kts 15°
2026-04-27 16:05 66.42297 14.19397 25344 ft 270 kts 15°
2026-04-27 16:05 66.44006 14.21409 25345 ft 270 kts 15°
2026-04-27 16:05 66.45692 14.23395 25346 ft 270 kts 15°
2026-04-27 16:05 66.47369 14.25376 25347 ft 270 kts 15°
2026-04-27 16:06 66.49070 14.27388 25346 ft 270 kts 15°
2026-04-27 16:06 66.50770 14.29400 25344 ft 270 kts 15°
2026-04-27 16:06 66.52450 14.31393 25339 ft 270 kts 15°
2026-04-27 16:06 66.54154 14.33418 25338 ft 270 kts 15°
2026-04-27 16:07 66.55857 14.35442 25310 ft 272 kts 16°
2026-04-27 16:07 66.57568 14.37478 25274 ft 273 kts 16°
2026-04-27 16:07 66.59276 14.39515 25232 ft 274 kts 16°
2026-04-27 16:07 66.61015 14.41594 25187 ft 276 kts 16°
2026-04-27 16:08 66.62746 14.43665 25131 ft 277 kts 16°
2026-04-27 16:08 66.64471 14.45734 25077 ft 278 kts 16°
2026-04-27 16:08 66.66219 14.47834 25024 ft 278 kts 16°
2026-04-27 16:08 66.67947 14.49912 24973 ft 279 kts 16°
2026-04-27 16:09 66.69708 14.52036 24923 ft 278 kts 16°
2026-04-27 16:09 66.73182 14.56235 24883 ft 275 kts 16°
2026-04-27 16:09 66.74896 14.58311 24867 ft 274 kts 16°
2026-04-27 16:10 66.78302 14.62446 24889 ft 269 kts 16°
2026-04-27 16:10 66.81638 14.66513 25001 ft 262 kts 17°
2026-04-27 16:11 66.83261 14.68494 25079 ft 260 kts 17°
2026-04-27 16:11 66.86503 14.72453 25219 ft 258 kts 16°
2026-04-27 16:12 66.89736 14.76412 25335 ft 258 kts 16°
2026-04-27 16:12 66.91370 14.78414 25354 ft 260 kts 16°
2026-04-27 16:12 66.94666 14.82467 25364 ft 264 kts 17°
2026-04-27 16:13 66.96347 14.84540 25352 ft 265 kts 17°
2026-04-27 16:13 66.99690 14.88677 25348 ft 266 kts 17°
2026-04-27 16:13 67.01356 14.90742 25347 ft 266 kts 17°
2026-04-27 16:14 67.04686 14.94881 25344 ft 267 kts 17°
2026-04-27 16:14 67.08035 14.99058 25342 ft 267 kts 17°
2026-04-27 16:15 67.11379 15.03240 25351 ft 268 kts 17°
2026-04-27 16:15 67.14737 15.07448 25362 ft 269 kts 17°
2026-04-27 16:16 67.18119 15.11702 25373 ft 271 kts 17°
2026-04-27 16:16 67.21496 15.15962 25382 ft 272 kts 17°
2026-04-27 16:17 67.24882 15.20258 25390 ft 272 kts 17°
2026-04-27 16:17 67.28283 15.24579 25396 ft 272 kts 17°
2026-04-27 16:18 67.31686 15.28905 25395 ft 272 kts 17°
2026-04-27 16:18 67.35071 15.33240 25397 ft 272 kts 17°
2026-04-27 16:19 67.36768 15.35421 25395 ft 272 kts 17°
2026-04-27 16:19 67.38464 15.37604 25393 ft 272 kts 17°
2026-04-27 16:20 67.43538 15.44125 25393 ft 273 kts 17°
2026-04-27 16:20 67.45237 15.46317 25393 ft 272 kts 17°
2026-04-27 16:20 67.48631 15.50713 25390 ft 273 kts 17°
2026-04-27 16:21 67.50325 15.52911 25383 ft 273 kts 17°
2026-04-27 16:21 67.55424 15.59552 25362 ft 273 kts 17°
2026-04-27 16:22 67.57114 15.61756 25362 ft 273 kts 17°
2026-04-27 16:22 67.60500 15.66198 25356 ft 273 kts 18°
2026-04-27 16:22 67.62211 15.68444 25358 ft 274 kts 18°
2026-04-27 16:23 67.63905 15.70671 25359 ft 274 kts 18°
2026-04-27 16:23 67.67326 15.75172 25364 ft 275 kts 18°
2026-04-27 16:23 67.69021 15.77407 25362 ft 275 kts 18°
2026-04-27 16:24 67.70732 15.79669 25352 ft 275 kts 18°
2026-04-27 16:24 67.74152 15.84206 25334 ft 275 kts 18°
2026-04-27 16:25 67.77562 15.88738 25311 ft 275 kts 18°
2026-04-27 16:25 67.80941 15.93262 25312 ft 274 kts 18°
2026-04-27 16:26 67.84332 15.97803 25330 ft 273 kts 18°
2026-04-27 16:26 67.87724 16.02363 25334 ft 274 kts 18°
2026-04-27 16:27 67.91112 16.06938 25339 ft 274 kts 18°
2026-04-27 16:27 67.96209 16.14001 25354 ft 275 kts 19°
2026-04-27 16:28 67.99545 16.18885 25366 ft 275 kts 19°
2026-04-27 16:28 68.02920 16.23828 25375 ft 275 kts 19°
2026-04-27 16:29 68.07943 16.31187 25349 ft 276 kts 19°
2026-04-27 16:30 68.11330 16.36163 25321 ft 278 kts 20°
2026-04-27 16:30 68.14712 16.41167 25296 ft 279 kts 20°
2026-04-27 16:31 68.19846 16.48766 25251 ft 283 kts 20°
2026-04-27 16:31 68.23283 16.53886 25182 ft 284 kts 20°
2026-04-27 16:32 68.26726 16.59045 25247 ft 281 kts 20°
2026-04-27 16:32 68.28430 16.61605 25269 ft 281 kts 20°
2026-04-27 16:33 68.31848 16.66740 25295 ft 282 kts 21°
2026-04-27 16:33 68.33574 16.69342 25301 ft 282 kts 21°
2026-04-27 16:33 68.35300 16.71940 25303 ft 284 kts 21°
2026-04-27 16:33 68.37026 16.74542 25305 ft 285 kts 21°
2026-04-27 16:34 68.38757 16.77160 25306 ft 286 kts 21°
2026-04-27 16:34 68.40496 16.79791 25306 ft 287 kts 22°
2026-04-27 16:34 68.42241 16.82446 25303 ft 288 kts 22°
2026-04-27 16:34 68.43994 16.85123 25304 ft 289 kts 22°
2026-04-27 16:35 68.45756 16.87817 25306 ft 290 kts 22°
2026-04-27 16:35 68.47490 16.90484 25309 ft 291 kts 22°
2026-04-27 16:35 68.51054 16.95942 25321 ft 292 kts 22°
2026-04-27 16:36 68.52810 16.98638 25323 ft 293 kts 22°
2026-04-27 16:36 68.54591 17.01376 25323 ft 294 kts 22°
2026-04-27 16:36 68.56399 17.04161 25319 ft 295 kts 22°
2026-04-27 16:36 68.58193 17.06930 25315 ft 296 kts 23°
2026-04-27 16:37 68.59982 17.09696 25312 ft 297 kts 23°
2026-04-27 16:37 68.61800 17.12514 25309 ft 298 kts 23°
2026-04-27 16:37 68.63583 17.15283 25299 ft 296 kts 23°
2026-04-27 16:37 68.65368 17.18061 25079 ft 292 kts 23°
2026-04-27 16:38 68.67148 17.20828 24757 ft 293 kts 23°
2026-04-27 16:38 68.68909 17.23569 24396 ft 294 kts 23°
2026-04-27 16:38 68.70703 17.26367 24012 ft 296 kts 23°
2026-04-27 16:38 68.72480 17.29143 23601 ft 297 kts 23°
2026-04-27 16:39 68.74284 17.31966 23181 ft 297 kts 24°
2026-04-27 16:39 68.76099 17.34820 22770 ft 297 kts 24°
2026-04-27 16:39 68.77904 17.37664 22366 ft 297 kts 24°
2026-04-27 16:39 68.79692 17.40488 21968 ft 297 kts 24°
2026-04-27 16:40 68.81502 17.43351 21567 ft 297 kts 24°
2026-04-27 16:40 68.83266 17.46147 21177 ft 297 kts 25°
2026-04-27 16:40 68.85073 17.49016 20778 ft 297 kts 25°
2026-04-27 16:40 68.86844 17.51835 20390 ft 297 kts 25°
2026-04-27 16:41 68.88648 17.54710 19828 ft 302 kts 25°
2026-04-27 16:41 68.90449 17.57581 19310 ft 298 kts 25°
2026-04-27 16:41 68.92226 17.60423 18872 ft 296 kts 25°
2026-04-27 16:41 68.93998 17.63261 18457 ft 293 kts 25°
2026-04-27 16:42 68.95766 17.66099 18052 ft 291 kts 26°
2026-04-27 16:42 68.97498 17.68885 17743 ft 289 kts 26°
2026-04-27 16:42 68.99242 17.71692 17384 ft 292 kts 27°
2026-04-27 16:42 69.01005 17.74534 16911 ft 295 kts 27°
2026-04-27 16:43 69.02784 17.77410 16397 ft 294 kts 27°
2026-04-27 16:43 69.04539 17.80255 15989 ft 290 kts 27°
2026-04-27 16:43 69.06248 17.83115 15617 ft 286 kts 31°
2026-04-27 16:43 69.07755 17.86748 15288 ft 289 kts 40°
2026-04-27 16:44 69.09185 17.90725 14933 ft 296 kts 41°
2026-04-27 16:44 69.10666 17.94851 14583 ft 302 kts 41°
2026-04-27 16:44 69.12165 17.99044 14213 ft 308 kts 41°
2026-04-27 16:44 69.13693 18.03317 13811 ft 313 kts 41°
2026-04-27 16:45 69.15221 18.07596 13393 ft 306 kts 41°
2026-04-27 16:45 69.16708 18.11764 12996 ft 303 kts 41°
2026-04-27 16:45 69.18204 18.15961 12595 ft 300 kts 41°
2026-04-27 16:45 69.19656 18.20039 12206 ft 298 kts 41°
2026-04-27 16:46 69.21112 18.24133 11813 ft 295 kts 41°
2026-04-27 16:46 69.22558 18.28190 11448 ft 293 kts 41°
2026-04-27 16:46 69.23985 18.32216 11079 ft 291 kts 41°
2026-04-27 16:46 69.25417 18.36255 10701 ft 290 kts 41°
2026-04-27 16:47 69.26828 18.40254 10324 ft 289 kts 41°
2026-04-27 16:47 69.28241 18.44260 9942 ft 287 kts 41°
2026-04-27 16:47 69.29649 18.48260 9560 ft 286 kts 41°
2026-04-27 16:47 69.31042 18.52216 9167 ft 285 kts 41°
2026-04-27 16:48 69.32485 18.55945 8770 ft 277 kts 34°
2026-04-27 16:48 69.34011 18.58963 8407 ft 261 kts 30°
2026-04-27 16:48 69.35478 18.61787 8067 ft 247 kts 30°
2026-04-27 16:49 69.38184 18.67003 7470 ft 225 kts 31°
2026-04-27 16:49 69.39452 18.69462 7171 ft 215 kts 31°
2026-04-27 16:49 69.40655 18.71779 6881 ft 206 kts 30°
2026-04-27 16:49 69.41825 18.74021 6575 ft 201 kts 27°
2026-04-27 16:50 69.43142 18.75458 6249 ft 207 kts 10°
2026-04-27 16:50 69.44578 18.76236 5977 ft 217 kts
2026-04-27 16:50 69.46088 18.77226 5772 ft 226 kts 11°
2026-04-27 16:50 69.47630 18.78259 5523 ft 233 kts 11°
2026-04-27 16:51 69.49261 18.79319 5098 ft 242 kts 11°
2026-04-27 16:51 69.50801 18.80326 4624 ft 218 kts 10°
2026-04-27 16:51 69.52214 18.81251 4133 ft 202 kts 10°
2026-04-27 16:51 69.53527 18.82116 3687 ft 186 kts 10°
2026-04-27 16:52 69.54742 18.82923 3476 ft 176 kts 10°
2026-04-27 16:52 69.55940 18.83723 3164 ft 178 kts 10°
2026-04-27 16:52 69.57159 18.84516 2803 ft 177 kts 11°
2026-04-27 16:52 69.58336 18.85283 2422 ft 169 kts 11°
2026-04-27 16:53 69.59445 18.86011 2095 ft 158 kts 11°
2026-04-27 16:53 69.60471 18.86692 1795 ft 145 kts 10°
2026-04-27 16:53 69.61437 18.87338 1575 ft 144 kts 11°
2026-04-27 16:53 69.62397 18.87975 1332 ft 142 kts 10°
2026-04-27 16:54 69.63349 18.88600 1089 ft 141 kts 10°
2026-04-27 16:54 69.64307 18.89245 836 ft 141 kts 11°
2026-04-27 16:54 69.65263 18.89875 587 ft 140 kts 10°
2026-04-27 16:54 69.66202 18.90472 319 ft 137 kts 11°
2026-04-27 16:55 69.67123 18.91087 60 ft 138 kts 11°
2026-04-27 16:55 69.68035 18.91696 -7 ft 117 kts 11°
2026-04-27 16:55 69.68593 18.92066 -10 ft 44 kts 12°
2026-04-27 16:55 69.68756 18.92034 -12 ft 18 kts 294°
2026-04-27 16:56 69.68748 18.91705 -13 ft 19 kts 207°
2026-04-27 16:56 69.68607 18.91605 -13 ft 23 kts 193°
2026-04-27 16:56 69.68448 18.91505 -12 ft 23 kts 185°
2026-04-27 16:56 69.68285 18.91469 -11 ft 24 kts 193°
2026-04-27 16:57 69.68130 18.91366 -10 ft 16 kts 193°
2026-04-27 16:57 69.68105 18.91185 -10 ft 9 kts 283°
2026-04-27 16:57 69.68117 18.91041 -10 ft 5 kts 283°
2026-04-27 16:57 69.68121 18.90980 -10 ft 0 kts 283°
2026-04-27 16:58 69.68122 18.90976 -10 ft 0 kts 282°